Location: Avoca
(45.7167°N, 74.7000°W)
Time: 11:42:09
(UTC+00:00)

BlueWalker 3 - Pass Details

Date: 27 November 2022
Orbit: 499 x 517 km, 53.2° (Epoch: 01 February)

Event Time Altitude Azimuth Distance (km) Brightness Sun altitude
Rises 22:14:11 0° 244° (WSW) 2,624 7.9 -9.7°
Reaches altitude 10° 22:16:24 10° 247° (WSW) 1,736 6.3 -10.0°
Maximum altitude 22:20:18 68° 330° (NNW) 555 2.1 -10.7°
Enters shadow 22:23:26 15° 53° (NE) 1,422 3.6 -11.2°
